Date String (YYYY-MM-DD hh:mm:ss) UTC,Instrument flags,Ambient pressure (hPa),Sample flow (lpm),Bypass flow (lpm),Sample temperature (°C),Ambient temperature (°C),ASC tube jacket temperature (°C),LED temperature (°C),Box temperature (°C),Sample RH (%),Span deviation,Mass concentration (μg/m³),Mass concentration (μg/m³),Mass concentration (μg/m³)
DateTimeUTC,F1_M11,P_M11,Q1_M11,Q2_M11,T1_M11,T2_M11,T3_M11,T4_M11,T5_M11,U1_M11,ZSPAN_M11,X0_M11,X2_M11,X1_M11
2021-11-28 04:00:00,,0832.2,4.98,0.00,25.1,24.2,00.0,34.2,26.9,11.9,0000.0,0012.07,0003.45,0001.69
2021-11-28 04:01:00,,0832.2,5.02,0.00,25.1,24.1,00.0,34.2,26.8,11.9,0000.0,0012.46,0003.43,0001.69
2021-11-28 04:02:00,,0832.1,4.99,0.00,25.1,24.1,00.0,34.2,26.8,11.9,0000.0,0011.84,0003.39,0001.69
2021-11-28 04:03:00,,0832.1,5.00,0.00,25.1,24.1,00.0,34.2,26.8,11.9,0000.0,0011.74,0003.35,0001.68
2021-11-28 04:04:00,,0832.1,5.02,0.00,25.1,24.1,00.0,34.2,26.8,11.9,0000.0,0011.58,0003.34,0001.68
2021-11-28 04:05:00,,0832.1,4.99,0.00,25.1,24.1,00.0,34.2,26.8,12.0,0000.0,0011.68,0003.37,0001.67
2021-11-28 04:06:00,,0832.1,5.01,0.00,25.1,24.1,00.0,34.2,26.7,12.0,0000.0,0011.60,0003.35,0001.67
2021-11-28 04:07:00,,0832.1,4.99,0.00,25.1,24.1,00.0,34.2,26.8,12.0,0000.0,0012.35,0003.37,0001.66
2021-11-28 04:08:00,,0832.1,5.02,0.00,25.1,24.1,00.0,34.2,26.8,12.0,0000.0,0012.44,0003.41,0001.66
2021-11-28 04:09:00,,0832.1,4.99,0.00,25.1,24.1,00.0,34.2,26.8,12.0,0000.0,0012.63,0003.42,0001.66
2021-11-28 04:10:00,,0832.1,5.00,0.00,25.1,24.1,00.0,34.1,26.8,12.0,0000.0,0013.16,0003.42,0001.67
2021-11-28 04:11:00,,0832.0,5.01,0.00,25.1,24.1,00.0,34.1,26.8,12.1,0000.0,0012.70,0003.45,0001.69
2021-11-28 04:12:00,,0832.1,5.00,0.00,25.1,24.1,00.0,34.1,26.7,12.2,0000.0,0012.11,0003.43,0001.68
2021-11-28 04:13:00,,0832.1,4.99,0.00,25.0,24.1,00.0,34.1,26.7,12.2,0000.0,0011.97,0003.48,0001.67
2021-11-28 04:14:00,,0832.1,5.01,0.00,25.0,24.1,00.0,34.1,26.7,12.2,0000.0,0011.64,0003.47,0001.67
2021-11-28 04:15:00,,0832.1,4.99,0.00,25.0,24.0,00.0,34.1,26.7,12.2,0000.0,0012.05,0003.42,0001.64
2021-11-28 04:16:00,,0832.1,5.00,0.00,25.0,24.0,00.0,34.1,26.7,12.3,0000.0,0012.88,0003.38,0001.62
2021-11-28 04:17:00,,0832.1,5.00,0.00,25.0,24.0,00.0,34.1,26.7,12.2,0000.0,0013.40,0003.36,0001.62
2021-11-28 04:18:00,,0832.1,5.01,0.00,25.0,24.0,00.0,34.1,26.7,12.2,0000.0,0012.54,0003.33,0001.62
2021-11-28 04:19:00,,0832.1,4.98,0.00,25.0,24.0,00.0,34.1,26.7,12.2,0000.0,0012.37,0003.30,0001.59
2021-11-28 04:20:00,,0832.1,5.02,0.00,25.0,24.0,00.0,34.1,26.7,12.2,0000.0,0012.60,0003.31,0001.58
2021-11-28 04:21:00,,0832.1,4.99,0.00,25.0,24.0,00.0,34.1,26.7,12.2,0000.0,0012.17,0003.33,0001.57
2021-11-28 04:22:00,,0832.1,4.99,0.00,25.0,24.0,00.0,34.1,26.6,12.2,0000.0,0011.99,0003.31,0001.56
2021-11-28 04:23:00,,0832.1,5.01,0.00,25.0,24.0,00.0,34.1,26.7,12.2,0000.0,0012.13,0003.31,0001.56
2021-11-28 04:24:00,,0832.1,4.99,0.00,24.9,24.0,00.0,34.0,26.6,12.2,0000.0,0012.53,0003.27,0001.56
2021-11-28 04:25:00,,0832.1,5.00,0.00,24.9,23.9,00.0,34.0,26.6,12.2,0000.0,0012.58,0003.27,0001.56
2021-11-28 04:26:00,,0832.0,5.01,0.00,24.9,23.9,00.0,34.0,26.7,12.2,0000.0,0012.17,0003.27,0001.57
2021-11-28 04:27:00,,0832.1,5.00,0.00,24.9,24.0,00.0,34.0,26.7,12.1,0000.0,0011.49,0003.25,0001.59
2021-11-28 04:28:00,,0832.1,4.99,0.00,24.9,24.0,00.0,34.0,26.6,12.1,0000.0,0011.33,0003.23,0001.57
2021-11-28 04:29:00,,0832.1,5.00,0.00,24.9,23.9,00.0,34.0,26.6,12.2,0000.0,0011.09,0003.19,0001.56
2021-11-28 04:30:00,,0832.1,5.00,0.00,24.9,23.9,00.0,34.0,26.7,12.2,0000.0,0010.91,0003.19,0001.57
2021-11-28 04:31:00,,0832.1,4.99,0.00,24.9,23.9,00.0,34.0,26.6,12.1,0000.0,0010.18,0003.18,0001.57
2021-11-28 04:32:00,,0832.0,5.01,0.00,24.9,23.9,00.0,34.0,26.6,12.1,0000.0,0010.00,0003.10,0001.55
2021-11-28 04:33:00,,0832.1,5.00,0.00,24.9,23.9,00.0,34.0,26.6,12.1,0000.0,0010.11,0003.04,0001.53
2021-11-28 04:34:00,,0832.1,5.00,0.00,24.9,24.0,00.0,34.0,26.7,12.2,0000.0,0010.42,0003.02,0001.52
2021-11-28 04:35:00,,0832.1,5.00,0.00,24.9,24.0,00.0,34.0,26.7,12.1,0000.0,0010.30,0003.03,0001.50
2021-11-28 04:36:00,,0832.1,5.01,0.00,24.9,24.0,00.0,34.0,26.7,12.2,0000.0,0010.32,0003.00,0001.50
2021-11-28 04:37:00,,0832.1,4.99,0.00,24.9,23.9,00.0,34.0,26.6,12.2,0000.0,0010.18,0002.96,0001.48
2021-11-28 04:38:00,,0832.1,4.99,0.00,24.9,23.9,00.0,34.0,26.7,12.1,0000.0,0009.61,0002.91,0001.47
2021-11-28 04:39:00,,0832.1,5.01,0.00,24.9,24.0,00.0,34.0,26.6,12.2,0000.0,0009.51,0002.93,0001.47
2021-11-28 04:40:00,,0832.1,5.01,0.00,24.9,23.9,00.0,34.0,26.6,12.2,0000.0,0009.26,0003.02,0001.47
2021-11-28 04:41:00,,0832.1,5.00,0.00,24.9,23.9,00.0,33.9,26.6,12.2,0000.0,0009.54,0002.94,0001.45
2021-11-28 04:42:00,,0832.1,5.01,0.00,24.9,23.9,00.0,33.9,26.6,12.2,0000.0,0010.65,0002.86,0001.44
2021-11-28 04:43:00,,0832.0,4.99,0.00,24.9,23.9,00.0,33.9,26.6,12.2,0000.0,0010.65,0002.84,0001.44
2021-11-28 04:44:00,,0832.0,5.00,0.00,24.9,23.9,00.0,33.9,26.5,12.2,0000.0,0010.74,0002.82,0001.45
2021-11-28 04:45:00,,0832.1,4.99,0.00,24.9,23.9,00.0,33.9,26.6,12.2,0000.0,0010.59,0002.89,0001.45
2021-11-28 04:46:00,,0832.1,5.00,0.00,24.8,23.8,00.0,33.9,26.5,12.2,0000.0,0011.08,0002.91,0001.46
2021-11-28 04:47:00,,0832.1,5.01,0.00,24.8,23.9,00.0,33.9,26.6,12.3,0000.0,0012.12,0002.97,0001.45
2021-11-28 04:48:00,,0832.1,4.98,0.00,24.8,23.9,00.0,33.9,26.6,12.3,0000.0,0012.50,0003.01,0001.46
2021-11-28 04:49:00,,0832.1,5.01,0.00,24.8,23.9,00.0,33.9,26.6,12.3,0000.0,0013.97,0003.08,0001.47
2021-11-28 04:50:00,,0832.1,4.99,0.00,24.8,23.9,00.0,33.9,26.6,12.3,0000.0,0014.55,0003.06,0001.45
2021-11-28 04:51:00,,0832.1,5.01,0.00,24.8,23.9,00.0,33.9,26.6,12.3,0000.0,0014.51,0003.00,0001.43
2021-11-28 04:52:00,,0832.1,5.00,0.00,24.8,23.8,00.0,33.9,26.5,12.3,0000.0,0014.25,0003.07,0001.43
2021-11-28 04:53:00,,0832.1,4.99,0.00,24.8,23.8,00.0,33.9,26.6,12.3,0000.0,0013.74,0003.11,0001.43
2021-11-28 04:54:00,,0832.1,5.01,0.00,24.8,23.8,00.0,33.9,26.6,12.3,0000.0,0013.41,0003.12,0001.42
2021-11-28 04:55:00,,0832.2,4.99,0.00,24.8,23.8,00.0,33.9,26.5,12.3,0000.0,0012.78,0003.14,0001.43
2021-11-28 04:56:00,,0832.3,5.00,0.00,24.8,23.8,00.0,33.9,26.5,12.1,0000.0,0012.55,0003.07,0001.43
2021-11-28 04:57:00,,0832.3,4.99,0.00,24.8,23.8,00.0,33.8,26.5,12.2,0000.0,0011.67,0003.04,0001.41
2021-11-28 04:58:00,,0832.2,5.01,0.00,24.7,23.8,00.0,33.8,26.5,12.3,0000.0,0010.66,0002.97,0001.40
2021-11-28 04:59:00,,0832.3,4.99,0.00,24.7,23.8,00.0,33.8,26.5,12.3,0000.0,0011.34,0002.93,0001.39
